Litchfield, MN

9:28 PM CDT on August 19, 2017 (GMT -0500)
Litchfield Municipal

Weather History for KLJF - June, 2014

Change the Weather History Date:

Tuesday, June 24, 2014

  Actual Average Record
Temperature  
Mean Temperature 70 °F -  
Max Temperature 78 °F 81 °F 101 °F (1988)
Min Temperature 62 °F 58 °F 43 °F (1958)
Cooling Degree Days 5    
Growing Degree Days 20 (Base 50)    
Moisture  
Dew Point 61 °F    
Average Humidity 68    
Maximum Humidity 94    
Minimum Humidity 47    
Precipitation  
Precipitation 0.00 in - - ()
Sea Level Pressure  
Sea Level Pressure 29.93 in    
Wind  
Wind Speed 5 mph (WNW)    
Max Wind Speed 12 mph    
Max Gust Speed 17 mph    
Visibility 10 miles    
Events      
Averages and records for this station are not official NWS values.
T = Trace of Precipitation, MM = Missing Value Source: NWS Daily Summary

Daily Weather History Graph

Daily Weather History Graph

Search for Another Location

Airport or City:

Trip Planner

Search our weather history database for the weather conditions in past years. The results will help you decide how hot, cold, wet, or windy it might be!

Date:

Astronomy

Jun. 24, 2014 Rise Set
Actual Time 5:31 AM CDT 9:09 PM CDT
Civil Twilight 4:54 AM CDT 9:46 PM CDT
Nautical Twilight 4:04 AM CDT 10:36 PM CDT
Astronomical Twilight 2:57 AM CDT 11:43 PM CDT
Moon 3:45 AM CDT (6/24) 6:43 PM CDT (6/24)
Length of Visible Light 16h 52m
Length of Day
15h 37m
Waning Crescent, 7% of the Moon is Illuminated
Jun 24
Waning Crescent
Jun 27
New
Jul 5
First Quarter
Jul 12
Full
Jul 18
Last Quarter

Hourly Weather History & Observations

Time (CDT) Temp. Dew Point Humidity Pressure Visibility Wind Dir Wind Speed Gust Speed Precip Events Conditions
12:12 AM 69.8 °F 62.6 °F 78% 29.91 in 10.0 mi West 3.5 mph - N/A   Clear
12:33 AM 69.8 °F 62.6 °F 78% 29.91 in 10.0 mi West 4.6 mph - N/A   Scattered Clouds
12:53 AM 69.8 °F 62.6 °F 78% 29.91 in 10.0 mi West 4.6 mph - N/A   Clear
1:12 AM 69.8 °F 62.6 °F 78% 29.91 in 10.0 mi Calm Calm - N/A   Mostly Cloudy
1:33 AM 69.8 °F 62.6 °F 78% 29.91 in 10.0 mi Calm Calm - N/A   Unknown
1:53 AM 68.0 °F 60.8 °F 78% 29.90 in 10.0 mi West 3.5 mph - N/A   Scattered Clouds
2:12 AM 68.0 °F 60.8 °F 78% 29.90 in 10.0 mi Calm Calm - N/A   Clear
2:33 AM 66.2 °F 60.8 °F 83% 29.90 in 10.0 mi West 3.5 mph - N/A   Clear
2:53 AM 66.2 °F 60.8 °F 83% 29.90 in 10.0 mi West 3.5 mph - N/A   Clear
3:12 AM 66.2 °F 60.8 °F 83% 29.91 in 10.0 mi Calm Calm - N/A   Clear
3:33 AM 66.2 °F 60.8 °F 83% 29.91 in 10.0 mi West 4.6 mph - N/A   Unknown
3:53 AM 66.2 °F 60.8 °F 83% 29.91 in 10.0 mi West 3.5 mph - N/A   Unknown
4:12 AM 66.2 °F 60.8 °F 83% 29.91 in 10.0 mi Calm Calm - N/A   Unknown
4:33 AM 66.2 °F 60.8 °F 83% 29.91 in 10.0 mi Calm Calm - N/A   Unknown
4:53 AM 66.2 °F 60.8 °F 83% 29.91 in 10.0 mi Calm Calm - N/A   Scattered Clouds
5:12 AM 64.4 °F 60.8 °F 88% 29.91 in 10.0 mi WSW 3.5 mph - N/A   Clear
5:33 AM 64.4 °F 60.8 °F 88% 29.90 in 10.0 mi Calm Calm - N/A   Clear
5:52 AM 62.6 °F 60.8 °F 94% 29.90 in 10.0 mi Calm Calm - N/A   Clear
6:13 AM 64.4 °F 62.6 °F 94% 29.91 in 10.0 mi West 3.5 mph - N/A   Clear
6:33 AM 66.2 °F 64.4 °F 94% 29.91 in 10.0 mi WNW 3.5 mph - N/A   Clear
6:52 AM 68.0 °F 64.4 °F 88% 29.91 in 10.0 mi West 3.5 mph - N/A   Clear
7:12 AM 68.0 °F 64.4 °F 88% 29.92 in 10.0 mi West 5.8 mph - N/A   Clear
7:33 AM 69.8 °F 64.4 °F 83% 29.92 in 10.0 mi West 6.9 mph - N/A   Clear
7:52 AM 71.6 °F 64.4 °F 78% 29.92 in 10.0 mi WNW 4.6 mph - N/A   Clear
8:13 AM 71.6 °F 64.4 °F 78% 29.93 in 10.0 mi West 6.9 mph - N/A   Clear
8:32 AM 73.4 °F 64.4 °F 73% 29.93 in 10.0 mi WNW 4.6 mph - N/A   Clear
9:13 AM 75.2 °F 64.4 °F 69% 29.94 in 10.0 mi WNW 5.8 mph - N/A   Clear
9:32 AM 75.2 °F 64.4 °F 69% 29.94 in 10.0 mi WNW 5.8 mph - N/A   Clear
9:53 AM 75.2 °F 62.6 °F 65% 29.94 in 10.0 mi WNW 9.2 mph - N/A   Clear
10:13 AM 77.0 °F 62.6 °F 61% 29.93 in 10.0 mi WNW 9.2 mph - N/A   Clear
10:32 AM 77.0 °F 62.6 °F 61% 29.93 in 10.0 mi WNW 8.1 mph - N/A   Clear
10:53 AM 78.8 °F 60.8 °F 54% 29.94 in 10.0 mi WNW 9.2 mph - N/A   Clear
11:12 AM 78.8 °F 62.6 °F 57% 29.94 in 10.0 mi WNW 8.1 mph - N/A   Scattered Clouds
11:33 AM 77.0 °F 62.6 °F 61% 29.94 in 10.0 mi West 6.9 mph - N/A   Scattered Clouds
11:52 AM 78.8 °F 62.6 °F 57% 29.95 in 10.0 mi West 10.4 mph 16.1 mph N/A   Scattered Clouds
12:12 PM 77.0 °F 60.8 °F 57% 29.95 in 10.0 mi West 9.2 mph - N/A   Scattered Clouds
12:33 PM 78.8 °F 60.8 °F 54% 29.95 in 10.0 mi WNW 9.2 mph 16.1 mph N/A   Scattered Clouds
12:52 PM 78.8 °F 60.8 °F 54% 29.95 in 10.0 mi NW 10.4 mph - N/A   Scattered Clouds
1:12 PM 78.8 °F 60.8 °F 54% 29.95 in 10.0 mi West 10.4 mph - N/A   Scattered Clouds
1:33 PM 78.8 °F 59.0 °F 51% 29.95 in 10.0 mi WNW 10.4 mph 17.3 mph N/A   Clear
1:52 PM 78.8 °F 57.2 °F 47% 29.95 in 10.0 mi West 10.4 mph - N/A   Clear
2:12 PM 78.8 °F 60.8 °F 54% 29.95 in 10.0 mi WNW 10.4 mph 16.1 mph N/A   Scattered Clouds
2:33 PM 78.8 °F 60.8 °F 54% 29.95 in 10.0 mi WNW 11.5 mph - N/A   Scattered Clouds
2:52 PM 78.8 °F 60.8 °F 54% 29.94 in 10.0 mi West 10.4 mph 16.1 mph N/A   Clear
3:12 PM 78.8 °F 60.8 °F 54% 29.94 in 10.0 mi WNW 10.4 mph - N/A   Scattered Clouds
3:33 PM 78.8 °F 60.8 °F 54% 29.94 in 10.0 mi WNW 9.2 mph - N/A   Scattered Clouds
3:52 PM 78.8 °F 59.0 °F 51% 29.94 in 10.0 mi West 9.2 mph 16.1 mph N/A   Scattered Clouds
4:12 PM 78.8 °F 59.0 °F 51% 29.94 in 10.0 mi WNW 9.2 mph 16.1 mph N/A   Clear
4:33 PM 78.8 °F 59.0 °F 51% 29.94 in 10.0 mi West 9.2 mph - N/A   Clear
4:53 PM 78.8 °F 57.2 °F 47% 29.93 in 10.0 mi WNW 10.4 mph - N/A   Clear
5:12 PM 77.0 °F 57.2 °F 50% 29.93 in 10.0 mi WNW 8.1 mph - N/A   Scattered Clouds
5:33 PM 78.8 °F 59.0 °F 51% 29.94 in 10.0 mi WNW 9.2 mph - N/A   Scattered Clouds
5:52 PM 78.8 °F 59.0 °F 51% 29.94 in 10.0 mi WNW 6.9 mph - N/A   Scattered Clouds
6:13 PM 78.8 °F 57.2 °F 47% 29.94 in 10.0 mi WNW 10.4 mph - N/A   Clear
6:33 PM 78.8 °F 59.0 °F 51% 29.95 in 10.0 mi West 6.9 mph - N/A   Clear
6:52 PM 77.0 °F 57.2 °F 50% 29.94 in 10.0 mi NW 5.8 mph - N/A   Scattered Clouds
7:13 PM 77.0 °F 57.2 °F 50% 29.94 in 10.0 mi NW 6.9 mph - N/A   Scattered Clouds
7:33 PM 75.2 °F 57.2 °F 53% 29.94 in 10.0 mi NW 8.1 mph - N/A   Clear
7:52 PM 75.2 °F 57.2 °F 53% 29.95 in 10.0 mi NW 6.9 mph - N/A   Clear
8:13 PM 73.4 °F 59.0 °F 61% 29.95 in 10.0 mi NW 10.4 mph - N/A   Clear
8:33 PM 73.4 °F 59.0 °F 61% 29.96 in 10.0 mi NW 5.8 mph - N/A   Clear
8:52 PM 71.6 °F 59.0 °F 64% 29.96 in 10.0 mi NW 5.8 mph - N/A   Clear
9:33 PM 69.8 °F 57.2 °F 64% 29.97 in 10.0 mi NW 5.8 mph - N/A   Clear
9:52 PM 68.0 °F 59.0 °F 73% 29.97 in 10.0 mi NNW 3.5 mph - N/A   Clear
10:13 PM 68.0 °F 57.2 °F 68% 29.97 in 10.0 mi NW 3.5 mph - N/A   Scattered Clouds
10:33 PM 68.0 °F 57.2 °F 68% 29.98 in 10.0 mi WNW 4.6 mph - N/A   Clear
10:52 PM 68.0 °F 59.0 °F 73% 29.98 in 10.0 mi WNW 4.6 mph - N/A   Unknown
11:13 PM 68.0 °F 60.8 °F 78% 29.98 in 10.0 mi WNW 4.6 mph - N/A   Unknown
11:32 PM 68.0 °F 60.8 °F 78% 29.98 in 10.0 mi NW 5.8 mph - N/A   Unknown
11:53 PM 64.4 °F 60.8 °F 88% 29.98 in 10.0 mi NNW 3.5 mph - N/A   Clear